Location: Newark
(48.3453°N, 0.5589°E)
Time: 22:24:36
(UTC+00:00)

Courier 1B - Pass Details

Date: 17 December 2019
Orbit: 962 x 1209 km, 28.3° (Epoch: 27 January)

Event Time Altitude Azimuth Distance (km) Brightness Sun altitude
Rises 19:20:14 0° 223° (SW) 3,747 11.1 -31.4°
Reaches altitude 10° 19:24:34 10° 198° (SSW) 2,851 10.1 -32.1°
Enters shadow 19:26:53 13° 178° (S) 2,661 9.7 -32.5°
